GW4477 Weather Reports


time (UTC)temp
F
wind
direction
speed
knots
gust
knots
rain 1hr
in
rain 24hr
in
rain mn
in
humidity
%
barometer
mb
20260505200006 53 9 1.7 9.6 0.00 0.00 0.00 1014.1
20260505194508 54 126 2.6 7.8 0.00 0.00 0.00 51 1014.2
20260505193011 53 112 1.7 9.6 0.00 0.00 0.00 1014.2
20260505191523 54 78 2.6 8.7 0.00 0.00 0.00 51 1014.4
20260505190022 54 37 1.7 6.1 0.00 0.00 0.00 50 1014.3
20260505184508 54 108 2.6 7.8 0.00 0.00 0.00 50 1014.4
20260505183011 54 64 1.7 12.2 0.00 0.00 0.00 50 1014.5
20260505181517 54 349 2.6 11.3 0.00 0.00 0.00 49 1014.6
20260505180039 55 352 2.6 11.3 0.00 0.00 0.00 48 1014.5
20260505174522 56 27 2.6 10.4 0.00 0.00 0.00 47 1014.4
20260505173010 55 352 3.5 10.4 0.00 0.00 0.00 48 1014.6
20260505171516 54 52 4.3 10.4 0.00 0.00 0.00 49 1014.5
20260505170022 53 83 4.3 9.6 0.00 0.00 0.00 50 1014.9
20260505164526 53 131 3.5 10.4 0.00 0.00 0.00 49 1015.0
20260505163028 53 20 2.6 9.6 0.00 0.00 0.00 50 1014.7
20260505161514 53 117 3.5 13.0 0.00 0.00 0.00 50 1014.7
20260505153026 51 76 3.5 9.6 0.00 0.00 0.00 53 1014.8
20260505151526 51 25 3.5 9.6 0.00 0.00 0.00 53 1014.7
20260505124505 48 5 3.5 7.8 0.00 0.00 0.00 61 1013.1
20260505123012 48 82 3.5 8.7 0.00 0.00 0.00 61 1012.7
20260505121506 48 18 1.7 7.0 0.00 0.00 0.00 61 1012.1
20260505120019 48 117 3.5 9.6 0.00 0.00 0.00 60 1011.2
20260505114514 48 30 2.6 7.8 0.00 0.00 0.00 61 1011.1
20260505113004 48 360 1.7 7.8 0.00 0.00 0.00 60 1010.9
20260505111511 49 360 3.5 8.7 0.00 0.00 0.00 58 1010.6
20260505101514 50 13 1.7 8.7 0.00 0.00 0.00 57 1009.6
20260505100021 50 352 3.5 10.4 0.00 0.00 0.00 57 1009.6
20260505094512 51 24 6.1 12.2 0.00 0.00 0.00 56 1009.8
20260505093022 51 105 6.1 13.0 0.00 0.00 0.00 56 1009.5
20260505091521 51 21 4.3 12.2 0.00 0.00 0.00 56 1009.6
20260505090005 51 9 5.2 11.3 0.00 0.00 0.00 55 1009.6
20260505084508 51 42 5.2 9.6 0.00 0.00 0.00 55 1009.5
20260505083018 51 53 6.1 10.4 0.00 0.00 0.00 53 1009.0
20260505081522 51 17 5.2 13.9 0.00 0.00 0.00 53 1008.7
20260505080024 52 348 6.1 14.8 0.00 0.00 0.00 52 1008.1
20260505074509 52 24 7.0 13.9 0.00 0.00 0.00 50 1007.6
20260505073031 53 31 7.8 14.8 0.00 0.00 0.00 49 1007.3
20260505071518 54 67 5.2 15.6 0.00 0.00 0.00 49 1006.8
20260505070022 55 41 6.1 12.2 0.00 0.00 0.00 49 1006.8
20260505064524 56 341 5.2 13.0 0.00 0.00 0.00 50 1006.7
20260505063028 57 11 6.1 13.0 0.00 0.00 0.00 50 1006.4
20260505061523 57 17 7.0 11.3 0.00 0.00 0.00 50 1006.4
20260505060023 58 91 5.2 13.9 0.00 0.00 0.00 51 1006.3
20260505054506 58 57 4.3 16.5 0.00 0.00 0.00 52 1006.2
20260505053014 59 74 4.3 10.4 0.00 0.00 0.00 54 1005.9
20260505051533 59 10 4.3 11.3 0.00 0.00 0.00 56 1006.0
20260505041511 64 9 5.2 12.2 0.00 0.00 0.00 48 1004.9
20260505040016 66 5 5.2 14.8 0.00 0.00 0.00 44 1004.5
20260505034519 67 344 6.1 9.6 0.00 0.00 0.00 39 1004.5
20260505033008 66 32 3.5 7.0 0.00 0.00 0.00 40 1004.3
20260505031510 67 130 3.5 7.8 0.00 0.00 0.00 39 1003.4
20260505030016 68 136 4.3 7.8 0.00 0.00 0.00 36 1003.1
20260505024518 69 140 4.3 7.0 0.00 0.00 0.00 34 1002.9
20260505023011 69 94 1.7 5.2 0.00 0.00 0.00 34 1002.5
20260505021510 70 144 3.5 6.1 0.00 0.00 0.00 32 1002.3
20260505020015 71 121 1.7 3.5 0.00 0.00 0.00 30 1002.3
20260505014527 72 132 0.9 5.2 0.00 0.00 0.00 29 1002.4
20260505013028 74 111 0.9 3.5 0.00 0.00 0.00 28 1002.2
20260505011509 75 94 0.9 5.2 0.00 0.00 0.00 26 1002.2
20260505010019 77 118 4.3 7.0 0.00 0.00 0.00 25 1002.2
20260505004516 78 81 0.9 3.5 0.00 0.00 0.00 24 1002.2
20260505003021 79 35 0.9 4.3 0.00 0.00 0.00 23 1002.3
20260505001524 80 87 1.7 5.2 0.00 0.00 0.00 22 1002.2
20260505000008 80 5 1.7 5.2 0.00 0.00 0.00 21 1002.5
20260504234514 80 81 0.9 4.3 0.00 0.00 0.00 21 1002.4
20260504233003 80 46 1.7 6.1 0.00 0.00 0.00 21 1002.4
20260504231505 81 121 2.6 7.8 0.00 0.00 0.00 20 1002.5
20260504230005 81 213 2.6 7.8 0.00 0.00 0.00 20 1002.7
20260504224506 81 26 3.5 11.3 0.00 0.00 0.00 20 1002.8
20260504223003 81 101 0.9 7.0 0.00 0.00 0.00 20 1003.0
20260504221509 82 352 3.5 7.8 0.00 0.00 0.00 20 1002.9
20260504220008 83 128 7.0 11.3 0.00 0.00 0.00 20 1002.9
20260504214509 82 88 2.6 7.0 0.00 0.00 0.00 21 1003.1
20260504213008 82 128 3.5 9.6 0.00 0.00 0.00 22 1003.0
20260504211503 82 100 7.0 12.2 0.00 0.00 0.00 22 1003.0
20260504210006 83 139 6.1 9.6 0.00 0.00 0.00 21 1003.2
20260504204511 83 166 1.7 5.2 0.00 0.00 0.00 17 1003.5
20260504203012 84 197 1.7 5.2 0.00 0.00 0.00 16 1003.5
20260504201512 84 234 1.7 5.2 0.00 0.00 0.00 17 1003.7